Location: Moscow
(55.7500°N, 37.5830°E)
Time: 20:16:54
(UTC+03:00)

FENGYUN 1C DEB - Pass Details

Date: 04 July 2022
Orbit: 583 x 834 km, 98.9° (Epoch: 11 August)

Event Time Altitude Azimuth Distance (km) Brightness Sun altitude
Exits shadow 22:11:11 - 183° (S) 3,258 ? -5.8°
Reaches altitude 10° 22:13:35 10° 190° (S) 2,342 ? -5.9°
Maximum altitude 22:18:28 42° 261° (W) 1,075 ? -6.3°
Drops below altitude 10° 22:23:06 10° 332° (NNW) 2,211 ? -6.6°
Sets 22:25:25 0° 340° (NNW) 3,094 ? -6.8°
